User: anonymous   Login
Location: The D'Auria's Ocala Star Observatory
(29.0276°N, 82.1742°W)
Time: 09:12:24
(UTC-04:00)
Language:

Abrixas rocket - Orbit

View from above orbital plane
View from above orbital plane
View from above satellite
View from above satellite

Ground track
Ground track

The orbit data is extracted from the following two-line orbital elements,

1 25723U 99022C   16179.60840719  .00004024  00000-0  81251-4 0  9991
2 25723  48.4178 250.5210 0010262 131.2661  17.5880 15.48758199951448
Epoch (UTC): 27 June 2016 14:36:06
Eccentricity: 0.0010262
inclination: 48.4178°
perigee height: 413 km
apogee height: 427 km
right ascension of ascending node: 250.5210°
argument of perigee: 131.2661°
revolutions per day: 15.48758199
mean anomaly at epoch: 17.5880°
orbit number at epoch: 95144

The dashed part of the orbit path shows where the satellite is in the earth's shadow,  

DLR